Regional Weather Roundup
Issued by NWS

Home | Current Version | Previous Version | Graphics & Text | Print | Product List | Glossary Off
Versions: 1 2 3 4 5 6 7 8 9 10 11 12 13 14 15 16 17 18 19 20 21 22 23 24 25 26 27 28 29 30 31 32 33 34 35 36 37 38 39 40 41 42 43 44 45 46 47 48 49 50

000
ASUS43 KMKX 011421
RWRWI

WISCONSIN REGIONAL WEATHER ROUNDUP
NATIONAL WEATHER SERVICE MILWAUKEE/SULLIVAN WI
900 AM CDT WED OCT 01 2014

NOTE: "FAIR" INDICATES FEW OR NO CLOUDS BELOW 12,000 FEET WITH NO
SIGNIFICANT WEATHER AND/OR OBSTRUCTIONS TO VISIBILITY.

WIZ001-002-006>008-014>016-023>028-011500-
NORTHWEST WISCONSIN

CITY           SKY/WX    TMP DP  RH WIND       PRES   REMARKS
SUPERIOR ARPT  RAIN      47  47  97 E5        29.88R
ASHLAND        CLOUDY    49  45  86 S3        29.92S
HAYWARD        CLOUDY    48  44  86 S10       29.90F
SIREN          DRIZZLE   48  46  93 SE8       29.87S
CUMBERLAND     RAIN      45  43  93 SE9       29.90R
RICE LAKE      RAIN      47  45  92 SE8       29.92R
CHETEK         DRIZZLE   46  46  97 E9        29.92R
LADYSMITH      CLOUDY    48  45  87 SE9       29.94F
EAU CLAIRE     CLOUDY    48  45  89 E7        29.92S
MENOMONIE      RAIN      47  46  97 E8        29.91S
NEW RICHMOND   HVY RAIN  47  47  97 SE7       29.88S
OSCEOLA        LGT RAIN  48  48 100 SE9       29.90S
$$

WIZ003>005-009-010-017-018-011500-
NORTH CENTRAL WISCONSIN

CITY           SKY/WX    TMP DP  RH WIND       PRES   REMARKS
MANITOWISH WTR CLOUDY    45  44  97 S10G16    29.96R
ARBOR VITAE    CLOUDY    46  43  90 S9G16     29.97R
WOODRUFF       CLOUDY    46  43  90 S9G16     29.97R
RHINELANDER    CLOUDY    45  43  93 S8        30.00R
EAGLE RIVER    CLOUDY    45  45  97 S8        29.98R
LAND O LAKES   CLOUDY    47  45  93 S10       29.98R
PHILLIPS       CLOUDY    47  44  88 S12       29.95R
TOMAHAWK       CLOUDY    46  44  93 SE7       29.99R FOG
MEDFORD        CLOUDY    47  44  92 SE10G17   29.96S
MERRILL        CLOUDY    47  46  95 SE5       29.98S
$$

WIZ029-030-035-036-043>047-011500-
CENTRAL WISCONSIN

CITY           SKY/WX    TMP DP  RH WIND       PRES   REMARKS
WAUSAU         CLOUDY    49  47  93 SE10      29.98S
MOSINEE        CLOUDY    48  48 100 SE6       29.99F
MARSHFIELD     CLOUDY    50  46  86 S16G25    29.97R
STEVENS POINT  CLOUDY    48  46  93 SE6       30.00R
WAUPACA        CLOUDY    53  51  95 E5        30.01S
WAUTOMA        NOT AVBL
WISC RAPIDS    CLOUDY    51  48  89 SE7       30.00R
CAMP DOUGLAS   CLOUDY    50  50 100 E10       29.96S
$$

WIZ011>013-019>022-031-037>040-048>050-011500-
NORTHEAST WISCONSIN

CITY           SKY/WX    TMP DP  RH WIND       PRES   REMARKS
ANTIGO         CLOUDY    46  45  98 S10       30.01R FOG
SHAWANO        CLOUDY    52  50  93 CALM      30.03R FOG
OCONTO         CLOUDY    52  52 100 SE3       30.03S
STURGEON BAY   NOT AVBL
GREEN BAY      CLOUDY    52  51  97 E7        30.02S FOG
MANITOWOC      NOT AVBL
APPLETON       CLOUDY    52  50  93 VRB3      30.01F FOG
CLINTONVILLE   CLOUDY    50  48  93 E5        30.01S FOG
OSHKOSH        CLOUDY    54  51  90 SE6       30.01R
$$

WIZ032>034-041-042-053>061-011500-
SOUTHWEST WISCONSIN

CITY           SKY/WX    TMP DP  RH WIND       PRES   REMARKS
LA CROSSE      CLOUDY    53  47  79 SE7       29.93S
SPARTA         CLOUDY    51  46  83 E3        29.95S
VIROQUA        CLOUDY    50  49  96 SE12      29.93S
BOSCOBEL       CLOUDY    55  47  74 VRB5      29.96R
PRAIRIE DU CHI CLOUDY    53  46  77 E9        29.93R
PLATTEVILLE    PTSUNNY   53  48  83 SE13      29.96R
$$

WIZ056-057-062-063-064-067-068-011500-
SOUTH CENTRAL WISCONSIN

CITY           SKY/WX    TMP DP  RH WIND       PRES   REMARKS
REEDSBURG      CLOUDY    51  47  86 SE7       29.97S
BARABOO/DELLS  CLOUDY    51  46  82 SE9       29.98S
LONE ROCK      PTSUNNY   58  47  66 SE13      29.97S
MINERAL POINT  PTSUNNY   54  46  76 SE13      29.96S
MADISON        PTSUNNY   55  47  74 SE15      29.99S
MIDDLETON      PTSUNNY   56  47  72 SE13      29.99S
WATERTOWN      PTSUNNY   54  48  82 S7        30.01R
MONROE         PTSUNNY   52  48  87 SE14      29.98S
JANESVILLE     SUNNY     55  46  71 SE12      29.99S
$$

WIZ051-052-058>065-066-070>072-011500-
SOUTHEAST WISCONSIN

CITY           SKY/WX    TMP DP  RH WIND       PRES   REMARKS
MILWAUKEE      PTSUNNY   57  49  74 S7        30.02R
WAUKESHA       PTSUNNY   54  48  82 SE7       30.03R
MILWAUKEE/TIMM CLOUDY    55  46  71 S6        30.02S
RACINE         CLOUDY    58  48  69 S9        30.04R
BURLINGTON     SUNNY     55  47  72 S9        30.02R
KENOSHA        PTSUNNY   58  48  69 SE10      30.02R
FOND DU LAC    CLOUDY    54  50  86 S6        30.01R
SHEBOYGAN      CLOUDY    56  50  80 SE5       30.02
WEST BEND      CLOUDY    54  48  82 S3        30.02R
JUNEAU         CLOUDY    54  47  80 SE12      30.02R
$$

LSZ147-162-011500-
LAKE SUPERIOR

STATION/POSITION TIME  TEMP    WIND        PRES    WAVE
                       AIR SEA DIR/SP/G            HT/PER
                 (UTC) (F)     (DEG/KT/KT) (MB)    (FT/S)
W MID LAKE BUOY  1350   49 50  150/ 14/ 16 1013.6F   1/ 3
DEVILS ISLAND    1400   50     150/  5/  9 1013.4R
SAXON HARBOR     1300   46        CALM     1012.5F
$$

LMZ867-665-643>646-011500-
LAKE MICHIGAN

STATION/POSITION TIME  TEMP    WIND        PRES    WAVE
                       AIR SEA DIR/SP/G            HT/PER
                 (UTC) (F)     (DEG/KT/KT) (MB)    (FT/S)
CHAMBERS ISLAND  1300   53     160/  3/  6 1017.3S
S GREEN BAY BUOY 1200   53                 1017.5
N MID LAKE BUOY  1350   55 58  180/  8/ 10 1018.0R   1/ 3
NORTHPORT PIER   1300   54     180/  4/ 12 1017.3S
SISTER BAY       1342          190/ 10/ 12   N/A
KEWAUNEE LAKESHO 1300   54     140/ 10/ 12 1016.0R
SHEBOYGAN LAKESH 1400   56 54  140/ 13/ 14 1017.0R
PORT WASHINGTON  1300   58     150/  9/ 11 1016.6S
ATWATER BUOY     1400   58     170/ 12/ 14 1017.6R
MILWAUKEE LAKESH 1400   58     170/ 10/ 11   N/A
S MID LAKE BUOY  1350   56 61  150/ 10/ 14 1017.2R   2/ 3
KENOSHA   LAKESH 1400   58     170/ 14/ 16 1016.6R
$$

TC  - TEMPERATURE IN CELSIUS
VSB - VISIBILITY IN STATUTE MILES
WCI - WIND CHILL INDEX
HX  - HEAT INDEX



USA.gov is the U.S. government's official web portal to all federal, state and local government web resources and services.